Flag for Switzerland Weather past 2 weeks in Stans, Nidwalden, Switzerland

Now
60 °F

Cool.


Feels Like: 60 °F
Forecast: 58 / 68 °F
Wind: 2 mph from Northeast

Location: Giswil

Current Time: Jul 29, 2014 at 11:34:16 AM

Latest Report: Jul 29, 2014 at 10:00 AM


Visibility: N/A

Pressure: 29.84 "Hg

Humidity: 87%

Dew point: 56 °F

Location of StansLocation

Historic Weather in Stans — Graph

°F

Stans temperature yesterday

Maximum temperature yesterday: 77 °F (at 3:00 PM)
Minimum temperature yesterday: 52 °F (at 6:00 AM)
Average temperature yesterday: 63 °F

Past Weeks' High & Low Weather Summary

 TemperatureHumidityPressure
High87 °F (Jul 18, 4:00 PM)100% (Jul 23, 5:00 AM)30.24 "Hg (Jul 23, 5:00 AM)
Low51 °F (Jul 16, 6:00 AM)31% (Jul 18, 4:00 PM)29.75 "Hg (Jul 28, 4:00 PM)
Average65 °F82%30.00 "Hg
* Reported Jul 14 10:00 AM — Jul 29 10:00 AM, Stans, Weather by CustomWeather, © 2014

Note: Actual official high and low records may vary slightly from our data, if they occured in-between our weather recording intervals... More about our weather records

Advertising

Stans weather history for previous 24 hours

 ConditionsComfort  
Time TempWeatherWind HumidityBarometerVisibility
10:00 AM
Jul 29
60 °FCool.2 mph87%29.84 "HgN/A
9:00 AM59 °FCool.2 mph91%29.84 "HgN/A
8:00 AM58 °FCool.2 mph96%29.84 "HgN/A
7:00 AM58 °FCool.No wind99%29.84 "HgN/A
6:00 AM59 °FCool.No wind99%29.84 "HgN/A
5:00 AM59 °FCool.No wind99%29.85 "HgN/A
4:00 AM59 °FCool.1 mph99%29.86 "HgN/A
3:00 AM60 °FCool.1 mph99%29.86 "HgN/A
2:00 AM60 °FCool.1 mph98%29.87 "HgN/A
1:00 AM60 °FCool.1 mph98%29.88 "HgN/A
12:00 AM60 °FCool.2 mph98%29.90 "HgN/A
11:00 PM
Jul 28
61 °FCool.No wind98%29.91 "HgN/A
10:00 PM61 °FCool.1 mph98%29.91 "HgN/A
9:00 PM61 °FCool.No wind98%29.90 "HgN/A
8:00 PM61 °FCool.1 mph98%29.89 "HgN/A
7:00 PM63 °FMild.5 mph94%29.87 "HgN/A
6:00 PM65 °FMild.13 mph78%29.83 "HgN/A
5:00 PM71 °FMild.3 mph88%29.77 "HgN/A
4:00 PM77 °FMild.2 mph58%29.75 "HgN/A
3:00 PM77 °FWarm.5 mph56%29.78 "HgN/A
2:00 PM75 °FMild.5 mph60%29.80 "HgN/A
1:00 PM73 °FMild.3 mph60%29.84 "HgN/A
12:00 PM72 °FMild.1 mph63%29.87 "HgN/A
11:00 AM68 °FMild.1 mph70%29.89 "HgN/A
Weather by CustomWeather, © 2014

See weather overviewHow to use our weather pages